User: anonymous
Location: PACMO
(41.3967°N, 90.3760°W)
Time: 04:11:19
(UTC-05:00)
Language:

BREEZE-M DEB (TANK) - Orbit

View from above orbital plane
View from above orbital plane
View from above satellite
View from above satellite

Ground track
Ground track

The orbit data is extracted from the following two-line orbital elements,

1 31863U 07032B   14244.02376512  .00000450  00000-0  30911-3 0  2780
2 31863 045.9214 153.9817 4992697 174.5072 194.3275 05.50728874143223
Epoch (UTC): 01 September 2014 00:34:13
Eccentricity: 0.4992697
inclination: 45.9214°
perigee height: 404 km
apogee height: 13929 km
right ascension of ascending node: 153.9817°
argument of perigee: 174.5072°
revolutions per day: 5.50728874
mean anomaly at epoch: 194.3275°
orbit number at epoch: 14322

The dashed part of the orbit path shows where the satellite is in the earth's shadow,  

DLR